Time,TemperatureF,DewpointF,PressureIn,WindDirection,WindDirectionDegrees,WindSpeedMPH,WindSpeedGustMPH,Humidity,HourlyPrecipIn,Conditions,Clouds,dailyrainin,SoftwareType,DateUTC
2013-02-24 00:09:00,42.1,19.0,29.80,SW,217,7.0,10.0,39,0.00,,,0.00,weatherlink.com 1.10,2013-02-24 07:09:00,
2013-02-24 00:24:00,41.7,19.0,29.80,WSW,241,4.0,12.0,40,0.00,,,0.00,weatherlink.com 1.10,2013-02-24 07:24:00,
2013-02-24 00:39:00,41.5,19.0,29.80,WNW,300,3.0,8.0,40,0.00,,,0.00,weatherlink.com 1.10,2013-02-24 07:39:00,
2013-02-24 00:54:00,41.2,20.0,29.80,SW,226,2.0,7.0,42,0.00,,,0.00,weatherlink.com 1.10,2013-02-24 07:54:00,
2013-02-24 01:09:00,40.9,19.0,29.81,SSW,212,1.0,7.0,42,0.00,,,0.00,weatherlink.com 1.10,2013-02-24 08:09:00,
2013-02-24 01:24:00,40.6,20.0,29.81,SSW,206,3.0,6.0,43,0.00,,,0.00,weatherlink.com 1.10,2013-02-24 08:24:00,
2013-02-24 01:39:00,40.1,20.0,29.81,WSW,242,0.0,4.0,44,0.00,,,0.00,weatherlink.com 1.10,2013-02-24 08:39:00,
2013-02-24 01:54:00,39.4,21.0,29.83,NNE,16,3.0,8.0,47,0.00,,,0.00,weatherlink.com 1.10,2013-02-24 08:54:00,
2013-02-24 02:10:00,37.6,23.0,29.83,NW,322,4.0,7.0,55,0.00,,,0.00,weatherlink.com 1.10,2013-02-24 09:10:00,
2013-02-24 02:25:00,36.4,24.0,29.83,NW,315,1.0,10.0,60,0.00,,,0.00,weatherlink.com 1.10,2013-02-24 09:25:00,
2013-02-24 02:40:00,35.4,23.0,29.82,NNE,23,4.0,6.0,62,0.00,,,0.00,weatherlink.com 1.10,2013-02-24 09:40:00,
2013-02-24 02:55:00,34.5,22.0,29.82,NNW,338,4.0,9.0,60,0.00,,,0.00,weatherlink.com 1.10,2013-02-24 09:55:00,
2013-02-24 03:10:00,33.9,21.0,29.82,NNE,15,6.0,9.0,59,0.00,,,0.00,weatherlink.com 1.10,2013-02-24 10:10:00,
2013-02-24 03:25:00,33.8,21.0,29.82,North,1,1.0,9.0,59,0.00,,,0.00,weatherlink.com 1.10,2013-02-24 10:25:00,
2013-02-24 03:40:00,33.3,20.0,29.81,NNE,20,2.0,7.0,58,0.00,,,0.00,weatherlink.com 1.10,2013-02-24 10:40:00,
2013-02-24 03:55:00,32.9,20.0,29.80,NNE,25,2.0,8.0,59,0.00,,,0.00,weatherlink.com 1.10,2013-02-24 10:55:00,
2013-02-24 04:10:00,32.7,20.0,29.79,NNW,339,0.0,4.0,61,0.00,,,0.00,weatherlink.com 1.10,2013-02-24 11:10:00,
2013-02-24 04:25:00,32.1,21.0,29.80,NNE,16,4.0,7.0,63,0.00,,,0.00,weatherlink.com 1.10,2013-02-24 11:25:00,
2013-02-24 04:40:00,31.6,20.0,29.79,West,278,2.0,10.0,62,0.00,,,0.00,weatherlink.com 1.10,2013-02-24 11:40:00,
2013-02-24 04:55:00,31.2,19.0,29.81,North,3,5.0,7.0,60,0.00,,,0.00,weatherlink.com 1.10,2013-02-24 11:55:00,
2013-02-24 05:10:00,30.9,18.0,29.82,NNW,327,6.0,10.0,60,0.00,,,0.00,weatherlink.com 1.10,2013-02-24 12:10:00,
2013-02-24 05:25:00,30.8,18.0,29.80,North,353,3.0,11.0,59,0.00,,,0.00,weatherlink.com 1.10,2013-02-24 12:25:00,
2013-02-24 05:40:00,30.8,18.0,29.79,NNW,331,2.0,8.0,59,0.00,,,0.00,weatherlink.com 1.10,2013-02-24 12:40:00,
2013-02-24 05:55:00,30.4,18.0,29.79,WNW,293,0.0,2.0,60,0.00,,,0.00,weatherlink.com 1.10,2013-02-24 12:55:00,
2013-02-24 06:10:00,29.8,18.0,29.80,NNW,342,0.0,3.0,61,0.00,,,0.00,weatherlink.com 1.10,2013-02-24 13:10:00,
2013-02-24 06:25:00,30.4,18.0,29.80,WNW,298,1.0,2.0,60,0.00,,,0.00,weatherlink.com 1.10,2013-02-24 13:25:00,
2013-02-24 06:40:00,30.5,18.0,29.79,NW,307,1.0,3.0,59,0.00,,,0.00,weatherlink.com 1.10,2013-02-24 13:40:00,
2013-02-24 06:55:00,30.5,18.0,29.79,WNW,298,2.0,4.0,59,0.00,,,0.00,weatherlink.com 1.10,2013-02-24 13:55:00,
2013-02-24 07:10:00,30.4,17.0,29.79,West,271,3.0,6.0,59,0.00,,,0.00,weatherlink.com 1.10,2013-02-24 14:10:00,
2013-02-24 07:25:00,30.7,18.0,29.79,NNE,16,0.0,4.0,60,0.00,,,0.00,weatherlink.com 1.10,2013-02-24 14:25:00,
2013-02-24 07:40:00,31.2,18.0,29.80,West,274,0.0,6.0,58,0.00,,,0.00,weatherlink.com 1.10,2013-02-24 14:40:00,
2013-02-24 07:55:00,31.2,17.0,29.81,NNW,338,0.0,4.0,57,0.00,,,0.00,weatherlink.com 1.10,2013-02-24 14:55:00,
2013-02-24 08:10:00,31.6,17.0,29.80,NNW,333,2.0,3.0,56,0.00,,,0.00,weatherlink.com 1.10,2013-02-24 15:10:00,
2013-02-24 08:25:00,31.4,18.0,29.80,NNE,33,2.0,11.0,58,0.00,,,0.00,weatherlink.com 1.10,2013-02-24 15:25:00,
2013-02-24 08:40:00,31.1,21.0,29.80,NW,312,1.0,10.0,65,0.00,,,0.00,weatherlink.com 1.10,2013-02-24 15:40:00,
2013-02-24 08:55:00,31.5,20.0,29.80,NNW,344,3.0,10.0,62,0.00,,,0.00,weatherlink.com 1.10,2013-02-24 15:55:00,
2013-02-24 09:10:00,32.4,19.0,29.79,North,4,4.0,8.0,57,0.00,,,0.00,weatherlink.com 1.10,2013-02-24 16:10:00,
2013-02-24 09:25:00,32.8,19.0,29.79,NNW,337,1.0,9.0,57,0.00,,,0.00,weatherlink.com 1.10,2013-02-24 16:25:00,
2013-02-24 09:40:00,33.0,20.0,29.78,NNW,327,3.0,9.0,59,0.00,,,0.00,weatherlink.com 1.10,2013-02-24 16:40:00,
2013-02-24 09:55:00,34.2,17.0,29.77,NNE,13,6.0,11.0,50,0.00,,,0.00,weatherlink.com 1.10,2013-02-24 16:55:00,
2013-02-24 10:10:00,35.2,15.0,29.77,NW,326,2.0,6.0,43,0.00,,,0.00,weatherlink.com 1.10,2013-02-24 17:10:00,
2013-02-24 10:25:00,35.7,12.0,29.76,WNW,302,3.0,7.0,37,0.00,,,0.00,weatherlink.com 1.10,2013-02-24 17:25:00,
2013-02-24 10:41:00,35.2,9.0,29.76,NW,318,4.0,9.0,34,0.00,,,0.00,weatherlink.com 1.10,2013-02-24 17:41:00,
2013-02-24 10:56:00,35.2,11.0,29.75,NNW,340,1.0,8.0,36,0.00,,,0.00,weatherlink.com 1.10,2013-02-24 17:56:00,
2013-02-24 11:11:00,36.2,13.0,29.75,NNE,15,2.0,8.0,38,0.00,,,0.00,weatherlink.com 1.10,2013-02-24 18:11:00,
2013-02-24 11:26:00,37.1,16.0,29.74,NNW,331,2.0,13.0,42,0.00,,,0.00,weatherlink.com 1.10,2013-02-24 18:26:00,
2013-02-24 11:41:00,38.5,14.0,29.73,North,351,1.0,6.0,37,0.00,,,0.00,weatherlink.com 1.10,2013-02-24 18:41:00,
2013-02-24 11:56:00,39.5,14.0,29.72,North,1,2.0,9.0,35,0.00,,,0.00,weatherlink.com 1.10,2013-02-24 18:56:00,
2013-02-24 12:11:00,41.6,15.0,29.71,ESE,104,2.0,5.0,34,0.00,,,0.00,weatherlink.com 1.10,2013-02-24 19:11:00,
2013-02-24 12:26:00,41.3,14.0,29.70,ENE,77,1.0,5.0,33,0.00,,,0.00,weatherlink.com 1.10,2013-02-24 19:26:00,
2013-02-24 12:41:00,41.3,12.0,29.69,North,7,6.0,9.0,30,0.00,,,0.00,weatherlink.com 1.10,2013-02-24 19:41:00,
2013-02-24 12:56:00,41.6,12.0,29.68,North,11,4.0,8.0,30,0.00,,,0.00,weatherlink.com 1.10,2013-02-24 19:56:00,
2013-02-24 13:11:00,41.6,11.0,29.68,NW,324,9.0,10.0,29,0.00,,,0.00,weatherlink.com 1.10,2013-02-24 20:11:00,
2013-02-24 13:26:00,41.3,9.0,29.68,WSW,255,3.0,11.0,27,0.00,,,0.00,weatherlink.com 1.10,2013-02-24 20:26:00,
2013-02-24 13:41:00,41.6,8.0,29.67,NNE,13,6.0,14.0,25,0.00,,,0.00,weatherlink.com 1.10,2013-02-24 20:41:00,
2013-02-24 13:56:00,41.6,8.0,29.67,NNE,18,5.0,10.0,25,0.00,,,0.00,weatherlink.com 1.10,2013-02-24 20:56:00,
2013-02-24 14:11:00,41.7,9.0,29.68,NNW,330,12.0,14.0,26,0.00,,,0.00,weatherlink.com 1.10,2013-02-24 21:11:00,
2013-02-24 14:26:00,41.2,9.0,29.68,WNW,297,6.0,13.0,26,0.00,,,0.00,weatherlink.com 1.10,2013-02-24 21:26:00,
2013-02-24 14:41:00,40.7,10.0,29.68,NW,318,4.0,14.0,28,0.00,,,0.00,weatherlink.com 1.10,2013-02-24 21:41:00,
2013-02-24 14:56:00,40.8,9.0,29.68,NE,42,9.0,12.0,27,0.00,,,0.00,weatherlink.com 1.10,2013-02-24 21:56:00,
2013-02-24 15:11:00,40.6,9.0,29.69,WNW,297,3.0,14.0,27,0.00,,,0.00,weatherlink.com 1.10,2013-02-24 22:11:00,
2013-02-24 15:26:00,41.1,8.0,29.69,NW,312,9.0,15.0,26,0.00,,,0.00,weatherlink.com 1.10,2013-02-24 22:26:00,
2013-02-24 15:41:00,40.4,6.0,29.70,North,1,5.0,12.0,24,0.00,,,0.00,weatherlink.com 1.10,2013-02-24 22:41:00,
2013-02-24 15:56:00,39.2,4.0,29.70,SW,225,4.0,13.0,23,0.00,,,0.00,weatherlink.com 1.10,2013-02-24 22:56:00,
2013-02-24 16:11:00,38.1,5.0,29.71,North,11,9.0,14.0,25,0.00,,,0.00,weatherlink.com 1.10,2013-02-24 23:11:00,
2013-02-24 16:26:00,37.4,5.0,29.72,NW,313,8.0,19.0,26,0.00,,,0.00,weatherlink.com 1.10,2013-02-24 23:26:00,
2013-02-24 16:41:00,36.9,6.0,29.72,West,262,3.0,16.0,27,0.00,,,0.00,weatherlink.com 1.10,2013-02-24 23:41:00,
2013-02-24 16:56:00,36.9,6.0,29.73,NNW,333,11.0,16.0,27,0.00,,,0.00,weatherlink.com 1.10,2013-02-24 23:56:00,
2013-02-24 17:11:00,36.7,4.0,29.74,WNW,295,3.0,16.0,25,0.00,,,0.00,weatherlink.com 1.10,2013-02-25 00:11:00,
2013-02-24 17:26:00,36.5,4.0,29.74,NNW,331,4.0,13.0,26,0.00,,,0.00,weatherlink.com 1.10,2013-02-25 00:26:00,
2013-02-24 17:41:00,36.1,4.0,29.75,NW,309,6.0,17.0,26,0.00,,,0.00,weatherlink.com 1.10,2013-02-25 00:41:00,
2013-02-24 17:56:00,35.9,3.0,29.76,NNW,340,5.0,20.0,25,0.00,,,0.00,weatherlink.com 1.10,2013-02-25 00:56:00,
2013-02-24 18:11:00,35.2,9.0,29.77,NNW,329,4.0,20.0,33,0.00,,,0.00,weatherlink.com 1.10,2013-02-25 01:11:00,
2013-02-24 18:26:00,33.9,12.0,29.79,NNW,330,6.0,13.0,40,0.00,,,0.00,weatherlink.com 1.10,2013-02-25 01:26:00,
2013-02-24 18:41:00,34.5,7.0,29.79,WNW,287,2.0,13.0,31,0.00,,,0.00,weatherlink.com 1.10,2013-02-25 01:41:00,
2013-02-24 18:56:00,35.2,3.0,29.81,NNW,344,9.0,14.0,26,0.00,,,0.00,weatherlink.com 1.10,2013-02-25 01:56:00,
2013-02-24 19:11:00,35.2,3.0,29.82,North,351,5.0,16.0,26,0.00,,,0.00,weatherlink.com 1.10,2013-02-25 02:11:00,
2013-02-24 19:26:00,35.2,4.0,29.83,North,355,4.0,10.0,27,0.00,,,0.00,weatherlink.com 1.10,2013-02-25 02:26:00,
2013-02-24 19:41:00,34.4,12.0,29.84,NNW,338,5.0,16.0,39,0.00,,,0.00,weatherlink.com 1.10,2013-02-25 02:41:00,
2013-02-24 19:56:00,32.6,14.0,29.85,NNE,15,1.0,11.0,47,0.00,,,0.00,weatherlink.com 1.10,2013-02-25 02:56:00,
2013-02-24 20:11:00,31.9,17.0,29.87,NW,326,7.0,14.0,55,0.00,,,0.00,weatherlink.com 1.10,2013-02-25 03:11:00,
2013-02-24 20:26:00,30.3,18.0,29.88,WNW,293,6.0,14.0,61,0.00,,,0.00,weatherlink.com 1.10,2013-02-25 03:26:00,
2013-02-24 20:41:00,30.8,16.0,29.88,North,8,1.0,10.0,55,0.00,,,0.00,weatherlink.com 1.10,2013-02-25 03:41:00,
2013-02-24 20:56:00,31.7,13.0,29.88,NW,309,3.0,15.0,47,0.00,,,0.00,weatherlink.com 1.10,2013-02-25 03:56:00,
2013-02-24 21:11:00,32.3,12.0,29.89,NNW,340,2.0,8.0,44,0.00,,,0.00,weatherlink.com 1.10,2013-02-25 04:11:00,
2013-02-24 21:26:00,32.7,13.0,29.90,NNE,23,9.0,9.0,44,0.00,,,0.00,weatherlink.com 1.10,2013-02-25 04:26:00,
2013-02-24 21:41:00,32.1,16.0,29.91,North,1,7.0,13.0,51,0.00,,,0.00,weatherlink.com 1.10,2013-02-25 04:41:00,
2013-02-24 21:56:00,30.6,20.0,29.91,NW,322,5.0,10.0,65,0.00,,,0.00,weatherlink.com 1.10,2013-02-25 04:56:00,
2013-02-24 22:12:00,30.0,22.0,29.93,North,353,2.0,6.0,72,0.00,,,0.00,weatherlink.com 1.10,2013-02-25 05:12:00,
2013-02-24 22:27:00,28.9,24.0,29.93,North,349,0.0,4.0,81,0.00,,,0.00,weatherlink.com 1.10,2013-02-25 05:27:00,
2013-02-24 22:42:00,28.5,25.0,29.93,North,9,0.0,3.0,85,0.00,,,0.00,weatherlink.com 1.10,2013-02-25 05:42:00,
2013-02-24 22:57:00,28.8,25.0,29.93,NNW,331,0.0,3.0,85,0.00,,,0.00,weatherlink.com 1.10,2013-02-25 05:57:00,
2013-02-24 23:12:00,28.7,25.0,29.94,ESE,111,0.0,2.0,85,0.00,,,0.00,weatherlink.com 1.10,2013-02-25 06:12:00,
2013-02-24 23:27:00,29.1,25.0,29.95,ESE,118,0.0,2.0,86,0.00,,,0.00,weatherlink.com 1.10,2013-02-25 06:27:00,
2013-02-24 23:42:00,29.6,25.0,29.95,NNE,27,0.0,3.0,83,0.00,,,0.00,weatherlink.com 1.10,2013-02-25 06:42:00,
2013-02-24 23:57:00,29.4,25.0,29.96,SE,129,0.0,2.0,82,0.00,,,0.00,weatherlink.com 1.10,2013-02-25 06:57:00,